Time,TemperatureF,DewpointF,PressureIn,WindDirection,WindDirectionDegrees,WindSpeedMPH,WindSpeedGustMPH,Humidity,HourlyPrecipIn,Conditions,Clouds,dailyrainin,SolarRadiationWatts/m^2,SoftwareType,DateUTC
2013-04-11 00:00:00,35.0,29.0,-100.00,ENE,67,10.0,-999.0,78,-99.99,,,-99.99,0.000000,,2013-04-11 04:00:00,
2013-04-11 00:33:00,35.0,29.0,-100.00,ENE,67,10.0,-999.0,78,-99.99,,,-99.99,0.000000,,2013-04-11 04:33:00,
2013-04-11 00:43:00,35.0,29.0,-100.00,ENE,67,10.0,-999.0,78,-99.99,,,-99.99,0.000000,,2013-04-11 04:43:00,
2013-04-11 00:53:00,35.0,29.0,-100.00,ENE,67,10.0,-999.0,78,-99.99,,,-99.99,0.000000,,2013-04-11 04:53:00,
2013-04-11 01:00:00,36.0,28.0,-100.00,ENE,67,10.0,-999.0,75,-99.99,,,-99.99,0.000000,,2013-04-11 05:00:00,
2013-04-11 01:42:00,36.0,28.0,-100.00,ENE,67,10.0,-999.0,75,-99.99,,,-99.99,0.000000,,2013-04-11 05:42:00,
2013-04-11 01:52:00,36.0,28.0,-100.00,ENE,67,10.0,-999.0,75,-99.99,,,-99.99,0.000000,,2013-04-11 05:52:00,
2013-04-11 02:00:00,36.0,28.0,-100.00,ENE,67,10.0,-999.0,73,-99.99,,,-99.99,0.000000,,2013-04-11 06:00:00,
2013-04-11 02:42:00,36.0,28.0,-100.00,ENE,67,10.0,-999.0,73,-99.99,,,-99.99,0.000000,,2013-04-11 06:42:00,
2013-04-11 02:53:00,36.0,28.0,-100.00,ENE,67,10.0,-999.0,73,-99.99,,,-99.99,0.000000,,2013-04-11 06:53:00,
2013-04-11 03:00:00,35.0,30.0,-100.00,East,90,8.0,-999.0,82,0.08,,,-99.99,0.000000,,2013-04-11 07:00:00,
2013-04-11 03:43:00,35.0,30.0,-100.00,East,90,8.0,-999.0,82,0.08,,,-99.99,0.000000,,2013-04-11 07:43:00,
2013-04-11 03:52:00,35.0,30.0,-100.00,East,90,8.0,-999.0,82,0.08,,,-99.99,0.000000,,2013-04-11 07:52:00,
2013-04-11 04:00:00,34.0,31.0,-100.00,ENE,67,9.0,-999.0,90,0.22,,,-99.99,0.000000,,2013-04-11 08:00:00,
2013-04-11 04:22:00,34.0,31.0,-100.00,ENE,67,9.0,-999.0,90,0.22,,,-99.99,0.000000,,2013-04-11 08:22:00,
2013-04-11 04:33:00,34.0,31.0,-100.00,ENE,67,9.0,-999.0,90,0.22,,,-99.99,0.000000,,2013-04-11 08:33:00,
2013-04-11 04:43:00,34.0,31.0,-100.00,ENE,67,9.0,-999.0,90,0.22,,,-99.99,0.000000,,2013-04-11 08:43:00,
2013-04-11 04:52:00,34.0,31.0,-100.00,ENE,67,9.0,-999.0,90,0.22,,,-99.99,0.000000,,2013-04-11 08:52:00,
2013-04-11 07:00:00,34.0,32.0,-100.00,ENE,67,12.0,-999.0,92,-99.99,,,-99.99,0.000000,,2013-04-11 11:00:00,
2013-04-11 07:43:00,34.0,32.0,-100.00,ENE,67,12.0,-999.0,92,-99.99,,,-99.99,0.000000,,2013-04-11 11:43:00,
2013-04-11 07:53:00,34.0,32.0,-100.00,ENE,67,12.0,-999.0,92,-99.99,,,-99.99,0.000000,,2013-04-11 11:53:00,
2013-04-11 08:00:00,34.0,31.0,-100.00,ENE,67,12.0,-999.0,90,-99.99,,,-99.99,4.640000,,2013-04-11 12:00:00,
2013-04-11 08:43:00,34.0,31.0,-100.00,ENE,67,12.0,-999.0,90,-99.99,,,-99.99,4.640000,,2013-04-11 12:43:00,
2013-04-11 08:52:00,34.0,31.0,-100.00,ENE,67,12.0,-999.0,90,-99.99,,,-99.99,4.640000,,2013-04-11 12:52:00,
2013-04-11 09:00:00,33.0,31.0,-100.00,East,90,11.0,-999.0,91,-99.99,,,-99.99,19.719999,,2013-04-11 13:00:00,
2013-04-11 09:43:00,33.0,31.0,-100.00,East,90,11.0,-999.0,91,-99.99,,,-99.99,19.719999,,2013-04-11 13:43:00,
2013-04-11 09:54:00,33.0,31.0,-100.00,East,90,11.0,-999.0,91,-99.99,,,-99.99,19.719999,,2013-04-11 13:54:00,
2013-04-11 10:00:00,33.0,31.0,-100.00,ENE,67,11.0,-999.0,94,0.02,,,-99.99,37.119999,,2013-04-11 14:00:00,
2013-04-11 10:43:00,33.0,31.0,-100.00,ENE,67,11.0,-999.0,94,0.02,,,-99.99,37.119999,,2013-04-11 14:43:00,
2013-04-11 10:53:00,33.0,31.0,-100.00,ENE,67,11.0,-999.0,94,0.02,,,-99.99,37.119999,,2013-04-11 14:53:00,
2013-04-11 13:00:00,34.0,32.0,-100.00,East,90,13.0,-999.0,93,0.01,,,-99.99,81.199997,,2013-04-11 17:00:00,
2013-04-11 13:43:00,34.0,32.0,-100.00,East,90,13.0,-999.0,93,0.01,,,-99.99,81.199997,,2013-04-11 17:43:00,
2013-04-11 13:53:00,34.0,32.0,-100.00,East,90,13.0,-999.0,93,0.01,,,-99.99,81.199997,,2013-04-11 17:53:00,
2013-04-11 14:00:00,34.0,32.0,-100.00,East,90,13.0,-999.0,93,0.04,,,-99.99,75.400002,,2013-04-11 18:00:00,
2013-04-11 14:43:00,34.0,32.0,-100.00,East,90,13.0,-999.0,93,0.04,,,-99.99,75.400002,,2013-04-11 18:43:00,
2013-04-11 14:53:00,34.0,32.0,-100.00,East,90,13.0,-999.0,93,0.04,,,-99.99,75.400002,,2013-04-11 18:53:00,
2013-04-11 15:00:00,34.0,32.0,-100.00,East,90,12.0,-999.0,93,0.03,,,-99.99,77.720001,,2013-04-11 19:00:00,
2013-04-11 15:43:00,34.0,32.0,-100.00,East,90,12.0,-999.0,93,0.03,,,-99.99,77.720001,,2013-04-11 19:43:00,
2013-04-11 15:53:00,34.0,32.0,-100.00,East,90,12.0,-999.0,93,0.03,,,-99.99,77.720001,,2013-04-11 19:53:00,
2013-04-11 16:00:00,34.0,32.0,-100.00,East,90,12.0,-999.0,94,0.12,,,-99.99,56.840000,,2013-04-11 20:00:00,
2013-04-11 16:43:00,34.0,32.0,-100.00,East,90,12.0,-999.0,94,0.12,,,-99.99,56.840000,,2013-04-11 20:43:00,
2013-04-11 16:53:00,34.0,32.0,-100.00,East,90,12.0,-999.0,94,0.12,,,-99.99,56.840000,,2013-04-11 20:53:00,
2013-04-11 17:00:00,33.0,32.0,-100.00,East,90,11.0,-999.0,94,0.05,,,-99.99,42.919998,,2013-04-11 21:00:00,
2013-04-11 17:43:00,33.0,32.0,-100.00,East,90,11.0,-999.0,94,0.05,,,-99.99,42.919998,,2013-04-11 21:43:00,
2013-04-11 17:54:00,33.0,32.0,-100.00,East,90,11.0,-999.0,94,0.05,,,-99.99,42.919998,,2013-04-11 21:54:00,
2013-04-11 18:00:00,33.0,32.0,-100.00,East,90,12.0,-999.0,94,0.01,,,-99.99,42.919998,,2013-04-11 22:00:00,
2013-04-11 18:44:00,33.0,32.0,-100.00,East,90,12.0,-999.0,94,0.01,,,-99.99,42.919998,,2013-04-11 22:44:00,
2013-04-11 18:53:00,33.0,32.0,-100.00,East,90,12.0,-999.0,94,0.01,,,-99.99,42.919998,,2013-04-11 22:53:00,
2013-04-11 19:00:00,33.0,32.0,-100.00,East,90,12.0,-999.0,95,0.09,,,-99.99,22.040001,,2013-04-11 23:00:00,
2013-04-11 19:43:00,33.0,32.0,-100.00,East,90,12.0,-999.0,95,0.09,,,-99.99,22.040001,,2013-04-11 23:43:00,
2013-04-11 19:54:00,33.0,32.0,-100.00,East,90,12.0,-999.0,95,0.09,,,-99.99,22.040001,,2013-04-11 23:54:00,
2013-04-11 21:00:00,33.0,32.0,-100.00,East,90,11.0,-999.0,95,0.09,,,-99.99,0.000000,,2013-04-12 01:00:00,
2013-04-11 21:42:00,33.0,32.0,-100.00,East,90,11.0,-999.0,95,0.09,,,-99.99,0.000000,,2013-04-12 01:42:00,
2013-04-11 21:53:00,33.0,32.0,-100.00,East,90,11.0,-999.0,95,0.09,,,-99.99,0.000000,,2013-04-12 01:53:00,
2013-04-11 22:00:00,33.0,32.0,-100.00,ENE,67,8.0,-999.0,96,0.13,,,-99.99,0.000000,,2013-04-12 02:00:00,
2013-04-11 22:42:00,33.0,32.0,-100.00,ENE,67,8.0,-999.0,96,0.13,,,-99.99,0.000000,,2013-04-12 02:42:00,
2013-04-11 22:52:00,33.0,32.0,-100.00,ENE,67,8.0,-999.0,96,0.13,,,-99.99,0.000000,,2013-04-12 02:52:00,
2013-04-11 23:00:00,33.0,32.0,-100.00,ENE,67,8.0,-999.0,96,0.06,,,-99.99,0.000000,,2013-04-12 03:00:00,
2013-04-11 23:43:00,33.0,32.0,-100.00,ENE,67,8.0,-999.0,96,0.06,,,-99.99,0.000000,,2013-04-12 03:43:00,
2013-04-11 23:53:00,33.0,32.0,-100.00,ENE,67,8.0,-999.0,96,0.06,,,-99.99,0.000000,,2013-04-12 03:53:00,